Location: Avully
(45.9633°N, 6.0228°E)
Time: 20:44:47
(UTC+00:00)

Cosmos 2360 Rocket - Pass Details

Date: 17 August 2024
Orbit: 834 x 843 km, 71.0° (Epoch: 10 September)

Event Time Altitude Azimuth Distance (km) Brightness Sun altitude
Exits shadow 01:02:45 14° 289° (WNW) 2,203 4.3 -27.9°
Maximum altitude 01:05:08 17° 318° (NW) 1,990 4.3 -27.7°
Drops below altitude 10° 01:08:50 10° 359° (N) 2,468 5.4 -27.4°
Sets 01:12:11 0° 19° (NNE) 3,405 6.6 -27.2°
